SJX235 RCTP-VHHH

Flight info

Callsign SJX235
Flight time 1h 23m
Altitude 40000
Route CHALI1A CHALI T3 MKG A1 ELATO V522 ABBEY
Aircraft A359/H-SDE2E3GHIJ3J4J5LM1ORWXY/LB1D1

Departure

Time 2026-04-30 11:35
Airport Taiwan Taoyuan International Airport (RCTP)

Arrival

Time 2026-04-30 12:58
Airport Hong Kong International Airport (VHHH)
Time Latitude Longitude Altitude Speed Heading
2026-04-30 11:15 25.08031 121.23968 105 ft 0 kts 319°
2026-04-30 11:20 25.08017 121.23982 105 ft 4 kts 319°
2026-04-30 11:21 25.07997 121.24001 106 ft 4 kts 319°
2026-04-30 11:21 25.07976 121.24021 105 ft 4 kts 319°
2026-04-30 11:21 25.07958 121.24038 105 ft 3 kts 319°
2026-04-30 11:21 25.07945 121.24058 105 ft 4 kts 266°
2026-04-30 11:22 25.07953 121.24085 105 ft 4 kts 236°
2026-04-30 11:22 25.07966 121.24103 106 ft 0 kts 229°
2026-04-30 11:26 25.07897 121.24014 106 ft 17 kts 229°
2026-04-30 11:26 25.07813 121.23908 106 ft 20 kts 229°
2026-04-30 11:26 25.07717 121.23786 106 ft 16 kts 230°
2026-04-30 11:27 25.07677 121.23734 105 ft 0 kts 229°
2026-04-30 11:27 25.07668 121.23722 104 ft 9 kts 229°
2026-04-30 11:27 25.07604 121.23690 106 ft 4 kts 140°
2026-04-30 11:28 25.07491 121.23788 106 ft 12 kts 167°
2026-04-30 11:28 25.07447 121.23764 104 ft 8 kts 219°
2026-04-30 11:28 25.07403 121.23708 105 ft 12 kts 231°
2026-04-30 11:29 25.07343 121.23631 105 ft 15 kts 229°
2026-04-30 11:29 25.07262 121.23528 105 ft 22 kts 229°
2026-04-30 11:29 25.07037 121.23241 104 ft 29 kts 229°
2026-04-30 11:30 25.06781 121.22921 105 ft 29 kts 228°
2026-04-30 11:30 25.06640 121.22746 105 ft 32 kts 229°
2026-04-30 11:30 25.06547 121.22624 106 ft 20 kts 229°
2026-04-30 11:31 25.06446 121.22498 104 ft 23 kts 228°
2026-04-30 11:31 25.06353 121.22374 105 ft 11 kts 231°
2026-04-30 11:31 25.06297 121.22297 104 ft 15 kts 231°
2026-04-30 11:31 25.06202 121.22258 105 ft 17 kts 157°
2026-04-30 11:32 25.06183 121.22274 106 ft 0 kts 135°
2026-04-30 11:32 25.06176 121.22280 107 ft 4 kts 138°
2026-04-30 11:32 25.06138 121.22316 105 ft 10 kts 140°
2026-04-30 11:33 25.06113 121.22395 106 ft 7 kts 64°
2026-04-30 11:33 25.06134 121.22421 106 ft 0 kts 45°
2026-04-30 11:34 25.06171 121.22465 103 ft 36 kts 46°
2026-04-30 11:34 25.06527 121.22904 103 ft 114 kts 49°
2026-04-30 11:35 25.07174 121.23730 124 ft 172 kts 48°
2026-04-30 11:35 25.07972 121.24784 883 ft 174 kts 49°
2026-04-30 11:35 25.08758 121.25798 1841 ft 176 kts 49°
2026-04-30 11:35 25.09580 121.26870 2364 ft 196 kts 50°
2026-04-30 11:36 25.10566 121.28001 2982 ft 211 kts 39°
2026-04-30 11:36 25.11958 121.28448 3804 ft 217 kts 355°
2026-04-30 11:36 25.13404 121.27780 4368 ft 241 kts 325°
2026-04-30 11:36 25.14695 121.26439 4778 ft 265 kts 310°
2026-04-30 11:37 25.15975 121.25077 5701 ft 265 kts 317°
2026-04-30 11:37 25.17365 121.23810 6814 ft 261 kts 316°
2026-04-30 11:37 25.18723 121.22579 7814 ft 263 kts 315°
2026-04-30 11:37 25.20129 121.21284 8671 ft 271 kts 316°
2026-04-30 11:38 25.21608 121.19912 9635 ft 277 kts 315°
2026-04-30 11:38 25.23074 121.18547 10441 ft 286 kts 315°
2026-04-30 11:38 25.24675 121.17046 10920 ft 308 kts 315°
2026-04-30 11:38 25.26250 121.15369 11360 ft 322 kts 305°
2026-04-30 11:39 25.27354 121.13203 11943 ft 327 kts 286°
2026-04-30 11:39 25.27732 121.10750 12661 ft 329 kts 269°
2026-04-30 11:39 25.27338 121.08234 13405 ft 334 kts 251°
2026-04-30 11:39 25.26261 121.06114 14096 ft 341 kts 234°
2026-04-30 11:40 25.24454 121.04345 14752 ft 351 kts 217°
2026-04-30 11:40 25.22347 121.02934 15360 ft 358 kts 215°
2026-04-30 11:40 25.20347 121.01492 15924 ft 359 kts 223°
2026-04-30 11:40 25.18475 120.99657 16513 ft 361 kts 227°
2026-04-30 11:41 25.16679 120.97744 17107 ft 365 kts 228°
2026-04-30 11:41 25.14827 120.95755 17733 ft 369 kts 228°
2026-04-30 11:41 25.12987 120.93782 18275 ft 374 kts 228°
2026-04-30 11:41 25.11101 120.91761 18782 ft 378 kts 228°
2026-04-30 11:42 25.09246 120.89751 19265 ft 381 kts 229°
2026-04-30 11:42 25.07345 120.87695 19796 ft 384 kts 229°
2026-04-30 11:42 25.05422 120.85617 20330 ft 388 kts 229°
2026-04-30 11:42 25.03493 120.83537 20872 ft 391 kts 229°
2026-04-30 11:43 25.01533 120.81425 21434 ft 394 kts 229°
2026-04-30 11:43 24.99572 120.79314 21983 ft 398 kts 229°
2026-04-30 11:43 24.97583 120.77173 22510 ft 401 kts 229°
2026-04-30 11:43 24.95576 120.75014 23064 ft 405 kts 229°
2026-04-30 11:44 24.93538 120.72824 23595 ft 408 kts 229°
2026-04-30 11:44 24.91496 120.70631 24062 ft 412 kts 229°
2026-04-30 11:44 24.89441 120.68424 24531 ft 415 kts 229°
2026-04-30 11:44 24.87361 120.66193 25068 ft 418 kts 229°
2026-04-30 11:45 24.85261 120.63941 25618 ft 421 kts 228°
2026-04-30 11:45 24.83184 120.61715 26165 ft 423 kts 228°
2026-04-30 11:45 24.81034 120.59410 26717 ft 427 kts 228°
2026-04-30 11:45 24.78931 120.57158 27253 ft 430 kts 228°
2026-04-30 11:46 24.76779 120.54855 27789 ft 433 kts 228°
2026-04-30 11:46 24.74612 120.52539 28325 ft 437 kts 228°
2026-04-30 11:46 24.72302 120.50328 28820 ft 443 kts 221°
2026-04-30 11:46 24.69820 120.48301 29342 ft 447 kts 220°
2026-04-30 11:47 24.67267 120.46331 29861 ft 450 kts 218°
2026-04-30 11:47 24.64666 120.44379 30369 ft 452 kts 218°
2026-04-30 11:47 24.62055 120.42435 30812 ft 455 kts 218°
2026-04-30 11:47 24.59430 120.40479 31252 ft 456 kts 218°
2026-04-30 11:48 24.56801 120.38511 31659 ft 458 kts 218°
2026-04-30 11:48 24.54154 120.36521 32060 ft 461 kts 218°
2026-04-30 11:48 24.51524 120.34538 32481 ft 462 kts 218°
2026-04-30 11:48 24.48857 120.32525 32887 ft 463 kts 218°
2026-04-30 11:49 24.46203 120.30521 33265 ft 465 kts 218°
2026-04-30 11:49 24.43533 120.28503 33677 ft 464 kts 218°
2026-04-30 11:49 24.40901 120.26474 34184 ft 462 kts 219°
2026-04-30 11:49 24.38278 120.24426 34632 ft 460 kts 219°
2026-04-30 11:50 24.35677 120.22387 35035 ft 458 kts 219°
2026-04-30 11:50 24.33108 120.20375 35434 ft 457 kts 219°
2026-04-30 11:50 24.30522 120.18357 35829 ft 456 kts 219°
2026-04-30 11:50 24.27934 120.16342 36230 ft 455 kts 219°
2026-04-30 11:51 24.25359 120.14343 36610 ft 454 kts 219°
2026-04-30 11:51 24.22785 120.12348 36980 ft 453 kts 219°
2026-04-30 11:51 24.20216 120.10359 37327 ft 452 kts 219°
2026-04-30 11:51 24.17653 120.08376 37632 ft 452 kts 219°
2026-04-30 11:52 24.15079 120.06386 37990 ft 451 kts 219°
2026-04-30 11:52 24.12501 120.04402 38352 ft 450 kts 219°
2026-04-30 11:52 24.09947 120.02432 38700 ft 448 kts 219°
2026-04-30 11:52 24.07435 120.00492 38976 ft 447 kts 219°
2026-04-30 11:53 24.04888 119.98525 39226 ft 447 kts 219°
2026-04-30 11:53 24.02345 119.96561 39453 ft 447 kts 219°
2026-04-30 11:53 23.99802 119.94601 39691 ft 447 kts 219°
2026-04-30 11:53 23.97260 119.92647 39880 ft 447 kts 219°
2026-04-30 11:54 23.94709 119.90683 40030 ft 448 kts 219°
2026-04-30 11:54 23.92168 119.88725 40054 ft 447 kts 219°
2026-04-30 11:54 23.87076 119.84805 40038 ft 447 kts 219°
2026-04-30 11:55 23.81988 119.80895 40040 ft 447 kts 219°
2026-04-30 11:55 23.76920 119.77004 40043 ft 448 kts 219°
2026-04-30 11:56 23.71812 119.73087 40047 ft 448 kts 219°
2026-04-30 11:56 23.66717 119.69184 40043 ft 448 kts 219°
2026-04-30 11:57 23.61687 119.65178 40047 ft 446 kts 224°
2026-04-30 11:57 23.57584 119.60204 40048 ft 439 kts 238°
2026-04-30 11:58 23.54219 119.54627 40046 ft 439 kts 240°
2026-04-30 11:58 23.50998 119.49004 40036 ft 440 kts 240°
2026-04-30 11:59 23.47737 119.43317 40044 ft 440 kts 240°
2026-04-30 11:59 23.44493 119.37711 40040 ft 441 kts 240°
2026-04-30 12:00 23.41191 119.32035 40042 ft 440 kts 240°
2026-04-30 12:00 23.37933 119.26442 40035 ft 440 kts 240°
2026-04-30 12:01 23.34636 119.20787 40045 ft 440 kts 240°
2026-04-30 12:01 23.31345 119.15148 40037 ft 441 kts 240°
2026-04-30 12:02 23.28082 119.09561 40048 ft 441 kts 240°
2026-04-30 12:02 23.24777 119.03910 40048 ft 441 kts 240°
2026-04-30 12:03 23.19828 118.95459 40057 ft 441 kts 240°
2026-04-30 12:04 23.16538 118.89848 40055 ft 441 kts 240°
2026-04-30 12:04 23.13244 118.84239 40050 ft 442 kts 240°
2026-04-30 12:05 23.09937 118.78611 40047 ft 442 kts 240°
2026-04-30 12:05 23.06629 118.72988 40053 ft 442 kts 240°
2026-04-30 12:06 23.03339 118.67402 40045 ft 442 kts 240°
2026-04-30 12:06 23.00021 118.61776 40054 ft 442 kts 240°
2026-04-30 12:07 22.96690 118.56132 40051 ft 443 kts 240°
2026-04-30 12:07 22.93374 118.50537 40050 ft 443 kts 240°
2026-04-30 12:08 22.90037 118.44929 40049 ft 443 kts 240°
2026-04-30 12:08 22.86689 118.39308 40040 ft 443 kts 240°
2026-04-30 12:09 22.83338 118.33686 40050 ft 443 kts 240°
2026-04-30 12:09 22.80004 118.28099 40053 ft 444 kts 240°
2026-04-30 12:10 22.76653 118.22489 40049 ft 444 kts 240°
2026-04-30 12:10 22.73290 118.16866 40053 ft 444 kts 240°
2026-04-30 12:11 22.69932 118.11257 40048 ft 444 kts 240°
2026-04-30 12:11 22.66581 118.05667 40048 ft 444 kts 239°
2026-04-30 12:12 22.63210 118.00048 40050 ft 445 kts 239°
2026-04-30 12:12 22.59827 117.94418 40048 ft 446 kts 239°
2026-04-30 12:13 22.56458 117.88771 40047 ft 446 kts 240°
2026-04-30 12:13 22.53114 117.83122 40048 ft 446 kts 240°
2026-04-30 12:14 22.49763 117.77476 40050 ft 446 kts 240°
2026-04-30 12:14 22.46427 117.71872 40051 ft 446 kts 240°
2026-04-30 12:15 22.43062 117.66231 40046 ft 446 kts 240°
2026-04-30 12:15 22.39705 117.60608 40051 ft 445 kts 240°
2026-04-30 12:16 22.36372 117.54973 40048 ft 444 kts 242°
2026-04-30 12:16 22.33976 117.48900 40047 ft 440 kts 256°
2026-04-30 12:17 22.33088 117.39047 40051 ft 441 kts 269°
2026-04-30 12:17 22.33000 117.32442 40046 ft 442 kts 269°
2026-04-30 12:18 22.32919 117.25808 40049 ft 442 kts 269°
2026-04-30 12:18 22.32809 117.19169 40045 ft 442 kts 269°
2026-04-30 12:19 22.32705 117.13654 40054 ft 442 kts 269°
2026-04-30 12:19 22.32573 117.07022 40049 ft 442 kts 269°
2026-04-30 12:20 22.32440 117.00397 40050 ft 442 kts 269°
2026-04-30 12:20 22.32305 116.93764 40047 ft 442 kts 269°
2026-04-30 12:21 22.32167 116.87098 40051 ft 442 kts 269°
2026-04-30 12:21 22.32027 116.80509 40037 ft 442 kts 269°
2026-04-30 12:22 22.31884 116.73867 40044 ft 443 kts 269°
2026-04-30 12:22 22.31739 116.67232 40049 ft 443 kts 269°
2026-04-30 12:23 22.31590 116.60568 40047 ft 443 kts 269°
2026-04-30 12:23 22.31438 116.53904 40046 ft 443 kts 269°
2026-04-30 12:24 22.31284 116.47253 40050 ft 443 kts 269°
2026-04-30 12:24 22.31126 116.40593 40046 ft 443 kts 269°
2026-04-30 12:25 22.30967 116.33943 40048 ft 443 kts 269°
2026-04-30 12:25 22.30805 116.27315 40053 ft 443 kts 269°
2026-04-30 12:26 22.30640 116.20668 40039 ft 443 kts 268°
2026-04-30 12:26 22.30472 116.14010 40041 ft 444 kts 268°
2026-04-30 12:27 22.30301 116.07327 40046 ft 444 kts 268°
2026-04-30 12:27 22.30129 116.00740 39932 ft 443 kts 268°
2026-04-30 12:28 22.30042 115.97407 39405 ft 443 kts 268°
2026-04-30 12:28 22.29954 115.94094 38754 ft 444 kts 268°
2026-04-30 12:28 22.29863 115.90717 37973 ft 445 kts 268°
2026-04-30 12:28 22.29774 115.87407 37288 ft 445 kts 268°
2026-04-30 12:29 22.29683 115.84034 36582 ft 445 kts 268°
2026-04-30 12:29 22.29594 115.80735 35898 ft 444 kts 268°
2026-04-30 12:29 22.29508 115.77381 35171 ft 445 kts 268°
2026-04-30 12:29 22.29420 115.74032 34364 ft 447 kts 268°
2026-04-30 12:30 22.29332 115.70688 33446 ft 451 kts 268°
2026-04-30 12:30 22.29240 115.67258 32519 ft 453 kts 268°
2026-04-30 12:30 22.29149 115.63905 31621 ft 455 kts 268°
2026-04-30 12:30 22.29056 115.60479 30670 ft 458 kts 269°
2026-04-30 12:31 22.28959 115.57012 29603 ft 463 kts 269°
2026-04-30 12:31 22.28862 115.53534 28595 ft 464 kts 268°
2026-04-30 12:31 22.28765 115.50059 27881 ft 459 kts 268°
2026-04-30 12:31 22.28667 115.46617 27171 ft 455 kts 268°
2026-04-30 12:32 22.28572 115.43250 26442 ft 452 kts 268°
2026-04-30 12:32 22.28475 115.39877 25718 ft 449 kts 268°
2026-04-30 12:32 22.28379 115.36518 24995 ft 446 kts 268°
2026-04-30 12:32 22.28281 115.33162 24275 ft 443 kts 268°
2026-04-30 12:33 22.28183 115.29853 23552 ft 440 kts 268°
2026-04-30 12:33 22.28077 115.26561 22748 ft 436 kts 268°
2026-04-30 12:33 22.27978 115.23473 22049 ft 431 kts 268°
2026-04-30 12:33 22.27877 115.20269 21349 ft 426 kts 268°
2026-04-30 12:34 22.27777 115.17103 20634 ft 422 kts 268°
2026-04-30 12:34 22.27678 115.13966 19937 ft 418 kts 268°
2026-04-30 12:34 22.27579 115.10838 19215 ft 414 kts 268°
2026-04-30 12:34 22.27480 115.07729 18469 ft 412 kts 268°
2026-04-30 12:35 22.27382 115.04654 17676 ft 409 kts 268°
2026-04-30 12:35 22.27284 115.01587 16925 ft 404 kts 268°
2026-04-30 12:35 22.27186 114.98574 16192 ft 400 kts 268°
2026-04-30 12:35 22.27090 114.95591 15456 ft 396 kts 268°
2026-04-30 12:36 22.26993 114.92631 14711 ft 392 kts 268°
2026-04-30 12:36 22.26901 114.89709 13997 ft 389 kts 268°
2026-04-30 12:36 22.26805 114.86808 13215 ft 385 kts 268°
2026-04-30 12:36 22.26708 114.83925 12461 ft 381 kts 268°
2026-04-30 12:37 22.26564 114.81072 11730 ft 376 kts 264°
2026-04-30 12:37 22.25930 114.78427 11019 ft 373 kts 248°
2026-04-30 12:37 22.24519 114.76144 10687 ft 365 kts 229°
2026-04-30 12:37 22.22722 114.74253 10547 ft 349 kts 225°
2026-04-30 12:38 22.20999 114.72488 10427 ft 331 kts 226°
2026-04-30 12:38 22.19387 114.70818 10296 ft 314 kts 226°
2026-04-30 12:38 22.17842 114.69219 10189 ft 298 kts 226°
2026-04-30 12:38 22.16391 114.67724 10046 ft 284 kts 226°
2026-04-30 12:39 22.14974 114.66265 9940 ft 278 kts 226°
2026-04-30 12:39 22.13562 114.64808 9804 ft 280 kts 226°
2026-04-30 12:39 22.12155 114.63361 9647 ft 280 kts 226°
2026-04-30 12:39 22.10763 114.61931 9533 ft 280 kts 226°
2026-04-30 12:40 22.09341 114.60471 9372 ft 279 kts 226°
2026-04-30 12:40 22.07927 114.59020 9262 ft 280 kts 226°
2026-04-30 12:40 22.06524 114.57582 9148 ft 279 kts 226°
2026-04-30 12:40 22.05120 114.56143 8994 ft 278 kts 226°
2026-04-30 12:41 22.03711 114.54699 8887 ft 278 kts 226°
2026-04-30 12:41 22.02419 114.53191 8751 ft 276 kts 237°
2026-04-30 12:41 22.01536 114.51379 8608 ft 273 kts 249°
2026-04-30 12:41 22.00812 114.49478 8489 ft 273 kts 249°
2026-04-30 12:42 22.00101 114.47579 8344 ft 273 kts 249°
2026-04-30 12:42 21.99382 114.45677 8232 ft 273 kts 249°
2026-04-30 12:42 21.98667 114.43793 8096 ft 272 kts 249°
2026-04-30 12:42 21.97945 114.41903 7970 ft 272 kts 249°
2026-04-30 12:43 21.97226 114.40020 7839 ft 272 kts 249°
2026-04-30 12:43 21.96499 114.38120 7724 ft 272 kts 249°
2026-04-30 12:43 21.95865 114.36465 7590 ft 272 kts 249°
2026-04-30 12:43 21.95139 114.34571 7481 ft 272 kts 249°
2026-04-30 12:44 21.94409 114.32668 7332 ft 272 kts 249°
2026-04-30 12:44 21.93684 114.30778 7219 ft 272 kts 249°
2026-04-30 12:44 21.92962 114.28899 7090 ft 272 kts 249°
2026-04-30 12:44 21.92286 114.27139 6970 ft 271 kts 249°
2026-04-30 12:45 21.91579 114.25299 6842 ft 271 kts 249°
2026-04-30 12:45 21.90845 114.23387 6711 ft 271 kts 249°
2026-04-30 12:45 21.90134 114.21528 6588 ft 270 kts 249°
2026-04-30 12:45 21.89701 114.19585 6460 ft 270 kts 269°
2026-04-30 12:46 21.90066 114.17621 6336 ft 269 kts 294°
2026-04-30 12:46 21.90893 114.15933 6209 ft 269 kts 299°
2026-04-30 12:46 21.91830 114.14177 6083 ft 270 kts 299°
2026-04-30 12:46 21.92754 114.12418 5953 ft 269 kts 299°
2026-04-30 12:47 21.93668 114.10664 5826 ft 269 kts 299°
2026-04-30 12:47 21.94581 114.08906 5692 ft 269 kts 299°
2026-04-30 12:47 21.95485 114.07160 5571 ft 268 kts 299°
2026-04-30 12:47 21.96404 114.05385 5445 ft 267 kts 299°
2026-04-30 12:48 21.97291 114.03668 5312 ft 267 kts 299°
2026-04-30 12:48 21.98194 114.01918 5198 ft 266 kts 299°
2026-04-30 12:48 21.99097 114.00168 5063 ft 266 kts 299°
2026-04-30 12:48 22.00003 113.98413 4938 ft 266 kts 300°
2026-04-30 12:49 22.00900 113.96674 4809 ft 266 kts 300°
2026-04-30 12:49 22.01786 113.94954 4678 ft 264 kts 300°
2026-04-30 12:49 22.02684 113.93213 4543 ft 264 kts 300°
2026-04-30 12:49 22.03574 113.91485 4431 ft 264 kts 300°
2026-04-30 12:50 22.04470 113.89747 4296 ft 264 kts 300°
2026-04-30 12:50 22.05353 113.88033 4178 ft 264 kts 300°
2026-04-30 12:50 22.06229 113.86329 4061 ft 263 kts 301°
2026-04-30 12:50 22.07127 113.84583 3912 ft 263 kts 301°
2026-04-30 12:51 22.08003 113.82881 3809 ft 263 kts 301°
2026-04-30 12:51 22.08905 113.81127 3672 ft 264 kts 300°
2026-04-30 12:51 22.09803 113.79426 3546 ft 264 kts 303°
2026-04-30 12:51 22.11044 113.77992 3439 ft 262 kts 327°
2026-04-30 12:52 22.12728 113.77321 3314 ft 259 kts 352°
2026-04-30 12:52 22.14515 113.77093 3180 ft 258 kts 356°
2026-04-30 12:52 22.16266 113.76917 3063 ft 250 kts 356°
2026-04-30 12:52 22.17950 113.76740 2991 ft 235 kts 356°
2026-04-30 12:53 22.19531 113.76569 2880 ft 224 kts 355°
2026-04-30 12:53 22.21067 113.76398 2725 ft 215 kts 356°
2026-04-30 12:53 22.22518 113.76236 2604 ft 206 kts 356°
2026-04-30 12:53 22.23905 113.76079 2468 ft 196 kts 356°
2026-04-30 12:54 22.25235 113.75928 2364 ft 186 kts 357°
2026-04-30 12:54 22.26512 113.75806 2229 ft 180 kts
2026-04-30 12:54 22.27655 113.76108 2081 ft 161 kts 39°
2026-04-30 12:54 22.28346 113.76951 2017 ft 145 kts 56°
2026-04-30 12:55 22.28757 113.77823 1964 ft 132 kts 69°
2026-04-30 12:55 22.29043 113.78704 1823 ft 130 kts 71°
2026-04-30 12:55 22.29344 113.79629 1651 ft 130 kts 70°
2026-04-30 12:55 22.29641 113.80495 1485 ft 131 kts 69°
2026-04-30 12:56 22.29955 113.81416 1312 ft 129 kts 70°
2026-04-30 12:56 22.30266 113.82324 1149 ft 130 kts 69°
2026-04-30 12:56 22.30581 113.83189 971 ft 129 kts 70°
2026-04-30 12:56 22.30881 113.84091 859 ft 129 kts 73°
2026-04-30 12:57 22.31161 113.85041 716 ft 131 kts 73°
2026-04-30 12:57 22.31436 113.85964 524 ft 130 kts 72°
2026-04-30 12:57 22.31735 113.86884 333 ft 130 kts 74°
2026-04-30 12:57 22.32033 113.87800 160 ft 130 kts 74°
2026-04-30 12:58 22.32320 113.88715 41 ft 123 kts 75°
2026-04-30 12:58 22.32558 113.89473 38 ft 83 kts 70°
2026-04-30 12:58 22.32719 113.89953 39 ft 66 kts 70°
2026-04-30 12:58 22.32820 113.90362 39 ft 48 kts 86°
2026-04-30 12:59 22.32787 113.90618 38 ft 7 kts 100°
2026-04-30 12:59 22.32786 113.90621 39 ft 0 kts 100°
2026-04-30 12:59 22.32786 113.90622 39 ft 1 kts 100°
2026-04-30 12:59 22.32784 113.90637 39 ft 7 kts 100°
2026-04-30 13:00 22.32793 113.90763 39 ft 18 kts 69°
2026-04-30 13:00 22.32836 113.90895 39 ft 19 kts 71°
2026-04-30 13:00 22.32877 113.91025 39 ft 21 kts 71°
2026-04-30 13:00 22.32928 113.91184 39 ft 23 kts 71°
2026-04-30 13:01 22.32980 113.91343 39 ft 25 kts 71°
2026-04-30 13:01 22.33043 113.91537 39 ft 28 kts 71°
2026-04-30 13:01 22.33110 113.91747 39 ft 31 kts 71°
2026-04-30 13:01 22.33178 113.91958 39 ft 33 kts 71°
2026-04-30 13:02 22.33192 113.92105 39 ft 8 kts 128°
2026-04-30 13:02 22.33133 113.92143 39 ft 12 kts 157°
2026-04-30 13:02 22.33079 113.92166 39 ft 14 kts 160°
2026-04-30 13:02 22.32935 113.92220 39 ft 18 kts 161°
2026-04-30 13:03 22.32858 113.92249 39 ft 20 kts 160°
2026-04-30 13:03 22.32669 113.92320 39 ft 24 kts 158°
2026-04-30 13:03 22.32559 113.92358 39 ft 25 kts 162°
2026-04-30 13:03 22.32406 113.92412 39 ft 19 kts 160°
2026-04-30 13:04 22.32287 113.92457 38 ft 7 kts 161°
2026-04-30 13:04 22.32251 113.92484 38 ft 7 kts 123°
2026-04-30 13:04 22.32248 113.92549 38 ft 10 kts 68°
2026-04-30 13:04 22.32271 113.92635 38 ft 13 kts 91°
2026-04-30 13:05 22.32232 113.92674 38 ft 6 kts 178°
2026-04-30 13:05 22.32181 113.92690 38 ft 9 kts 163°
2026-04-30 13:05 22.32107 113.92714 40 ft 12 kts 163°
2026-04-30 13:06 22.31923 113.92785 38 ft 19 kts 158°
2026-04-30 13:06 22.31798 113.92841 48 ft 18 kts 156°
2026-04-30 13:06 22.31695 113.92885 38 ft 14 kts 161°
2026-04-30 13:06 22.31619 113.92912 38 ft 5 kts 161°
2026-04-30 13:07 22.31577 113.92931 38 ft 8 kts 150°
2026-04-30 13:07 22.31531 113.92970 38 ft 6 kts 148°
2026-04-30 13:07 22.31503 113.92984 38 ft 6 kts 155°
2026-04-30 13:07 22.31479 113.92994 38 ft 1 kts 160°
2026-04-30 13:08 22.31462 113.93001 38 ft 4 kts 160°
2026-04-30 13:08 22.31458 113.93003 38 ft 1 kts 160°
2026-04-30 13:08 22.31453 113.93005 38 ft 0 kts 161°
2026-04-30 13:08 22.31452 113.93005 38 ft 0 kts 161°